Location: Shandelee
(41.8790°N, 74.8713°W)
Time: 12:25:48
(UTC+00:00)

Cosmos 2082 - Pass Details

Date: 29 October 2020
Orbit: 832 x 857 km, 71.0° (Epoch: 01 December)

Event Time Altitude Azimuth Distance (km) Brightness Sun altitude
Rises 23:17:36 0° 338° (NNW) 3,436 7.1 -15.5°
Reaches altitude 10° 23:20:06 10° 342° (NNW) 2,497 6.3 -16.0°
Maximum altitude 23:25:48 63° 64° (ENE) 951 3.7 -17.1°
Drops below altitude 10° 23:31:27 10° 145° (SE) 2,481 5.8 -18.1°
Enters shadow 23:31:52 - 146° (SE) 2,637 6.0 -18.2°
